Вернуться в каталог

FENGYUN 1C DEB

АктивенSSO
NORAD 30806·DEBRIS·🇨🇳 China

Запущен May 10, 1999 с Taiyuan Satellite Launch Center

Loading…

Ближайшие Пролёты (ближайшие 24 часа)

TLE

СвежийSource: Space-Track

Эпоха: Sep 14, 2026, 12:22 UTC

1 30806U 99025AUQ 26257.51533529  .00000505  00000-0  47166-3 0  9994
2 30806  99.0194 272.6139 0268948 124.2049  27.3732 13.70927520974730

Отслеживайте FENGYUN 1C DEB в реальном времени с AllMySat

Download on the App Store